Погода в Панчево

Сербия     44°52′07″N   20°39′17″E
темп.,
°C
ветер,
м/с
пор.,
м/с
влажн.,
%
обл.,
%
осадки,
мм/ч
давл.,
гПа
погр.,
м
12 мая, ср
ср1223:00+17вюв7134957 0.0 1010365
02:00+14юв6136599 0.5 1008336
05:00+13юв613770 1.2 1007287
08:00+16юв696756 1.2 1008373
11:00+21ю336092 0.0 10071103
14:00+19сз4675100 0.6 1007455
17:00+17ссз61186100 1.5 1006534
20:00+13зюз2694100 14.6 1007278
13 мая, чт
чт1323:00+12ююв2396100 3.0 1008105
02:00+12ююв349491 3.2 100785
05:00+11ююв239076 0.0 100640
08:00+15ююз117378 0.0 1007264
11:00+19юз125871 0.6 1006863
14:00+21ююз3446100 1.0 10051661
17:00+13ююз5893100 5.2 1006270
20:00+13ю3588100 6.8 1006119
14 мая, пт
пт1423:00+13ююв3588100 0.2 1007122
02:00+13зюз3890100 0.4 1008292
05:00+13зюз2390100 1.2 100970
08:00+14ссз2284100 2.3 1010255
11:00+16св227022 0.3 1011766
14:00+19в225734 1.1 10101363
17:00+19ю2262100 1.8 1009757
20:00+14ссв2490100 3.0 101086
15 мая, сб
сб1523:00+12юв1190100 1.9 101111
02:00+12юв2290100 2.0 101015
05:00+11юв2290100 0.0 100935
08:00+14ююв3575100 0.0 1010240
11:00+18ю225692 0.0 1009666
14:00+20ююв345066 0.0 10071559
17:00+17юз347389 1.4 100686
20:00+15з2277100 3.5 100630
16 мая, вс
вс1623:00+14зюз1185100 0.6 100620
02:00+13юз1187100 1.0 100621
05:00+12з51094100 0.3 1005374
08:00+13зсз61092100 1.4 1007653
11:00+13зсз71089100 0.1 1008658
14:00+16зсз8978100 0.4 1008898
17:00+17зсз7107566 0.4 10081157
20:00+14з6128213 0.8 1009522